Location: Dixon
(37.9953°N, 92.0959°W)
Time: 08:11:05
(UTC+00:00)

Hubble Space Telescope - Pass Details

Date: 16 December 2025
Orbit: 479 x 481 km, 28.5° (Epoch: 14 January)

Event Time Altitude Azimuth Distance (km) Brightness Sun altitude
Rises 23:43:45 0° 251° (WSW) 2,526 6.5 -10.3°
Reaches altitude 10° 23:46:32 10° 230° (SW) 1,646 4.5 -10.8°
Maximum altitude 23:49:00 17° 189° (S) 1,290 3.1 -11.3°
Drops below altitude 10° 23:51:28 10° 148° (SSE) 1,644 3.1 -11.7°
Enters shadow 23:53:47 - 129° (SE) 2,360 3.8 -12.2°
